Tracking 35280 objects as of 7-Sep-2026
HD Live streaming from Space Station
objects crossing your sky now

ARIANE 3 DEB

Track ARIANE 3 DEB now!


NORAD ID: 26807
Int'l Code: 1988-081H
Launch date: September 8, 1988
Source: France (FR)
Launch site: FRENCH GUIANA (FRGUI)

Note: This is SATELLITE DEBRIS
Your satellite tracking list
Your tracking list is empty




NASA's NSSDC Master Catalog

Two Line Element Set (TLE):
1 26807U 88081H   26246.17305968 -.00000031  00000-0  00000-0 0  9992
2 26807   6.3856 302.8307 7040711  99.0734 341.6410  2.17349399214304
Source of the keplerian elements: AFSPC